Flag for U.S.A. Weather past 2 weeks in Greeley, Colorado, U.S.A.

Now
54 °F

Mostly cloudy.


Feels Like: 53 °F
Forecast: 44 / 56 °F
Wind: 5 mph from Northeast

Location: Greeley / Weld

Current Time: May 22, 2015 at 4:41:22 PM

Latest Report: May 22, 2015 at 3:55 PM


Visibility: 10 mi

Pressure: 29.99 "Hg

Humidity: 72%

Dew point: 45 °F

Location of GreeleyLocation

Historic Weather in Greeley — Graph

°F

Greeley temperature yesterday

Maximum temperature yesterday: 57 °F (at 4:55 PM)
Minimum temperature yesterday: 41 °F (at 12:55 AM)
Average temperature yesterday: 49 °F

Past Weeks' High & Low Weather Summary

 TemperatureHumidityPressure
High75 °F (May 14, 2:35 PM)100% (May 7, 5:15 PM)30.39 "Hg (May 7, 5:15 PM)
Low36 °F (May 20, 12:35 AM)24% (May 14, 4:55 PM)29.64 "Hg (May 15, 3:55 PM)
Average52 °F72%30.03 "Hg
* Reported May 7 4:55 PM — May 22 3:15 PM, Greeley, Weather by CustomWeather, © 2015

Note: Actual official high and low records may vary slightly from our data, if they occured in-between our weather recording intervals... More about our weather records

Advertising

Greeley weather history for previous 24 hours

 ConditionsComfort  
Time TempWeatherWind HumidityBarometerVisibility
3:15 PM
Fri, May 22
54 °FBroken clouds.5 mph72%30.00 "Hg10 mi
2:55 PM54 °FBroken clouds.8 mph77%30.00 "Hg10 mi
2:35 PM48 °FBroken clouds.8 mph94%30.01 "Hg10 mi
2:15 PM48 °FMostly cloudy.8 mph94%30.02 "Hg10 mi
1:55 PM48 °FBroken clouds.9 mph100%30.02 "Hg10 mi
1:35 PM48 °FCloudy.9 mph100%30.02 "Hg10 mi
1:15 PM48 °FBroken clouds.10 mph100%30.02 "Hg10 mi
12:55 PM48 °FBroken clouds.12 mph100%30.03 "Hg10 mi
12:35 PM48 °FCloudy.12 mph100%30.03 "Hg10 mi
12:15 PM48 °FBroken clouds.14 mph94%30.03 "Hg10 mi
11:55 AM48 °FMostly cloudy.13 mph94%30.03 "Hg10 mi
11:35 AM48 °FMostly cloudy.12 mph94%30.03 "Hg10 mi
11:15 AM46 °FMostly cloudy.13 mph100%30.03 "Hg10 mi
10:55 AM46 °FMostly cloudy.14 mph100%30.03 "Hg10 mi
10:35 AM48 °FCloudy.13 mph94%30.02 "Hg10 mi
10:15 AM46 °FMore clouds than sun.15 mph100%30.02 "Hg10 mi
9:55 AM46 °FMostly cloudy.15 mph93%30.02 "Hg10 mi
9:35 AM46 °FMostly cloudy.15 mph93%30.02 "Hg10 mi
9:15 AM46 °FLow clouds.14 mph93%30.02 "Hg10 mi
8:55 AM46 °FLow clouds.16 mph93%30.02 "Hg10 mi
8:35 AM46 °FLow clouds.14 mph93%30.02 "Hg9 mi
8:15 AM46 °FLow clouds.14 mph93%30.02 "Hg9 mi
7:55 AM46 °FLow clouds.15 mph93%30.02 "Hg5 mi
7:35 AM46 °FLow clouds.15 mph93%30.02 "Hg5 mi
7:15 AM46 °FLow clouds.13 mph93%30.02 "Hg7 mi
6:55 AM46 °FLow clouds.12 mph93%30.02 "Hg5 mi
6:35 AM46 °FMostly cloudy.13 mph93%30.02 "Hg5 mi
6:15 AM46 °FMostly cloudy.12 mph93%30.02 "Hg3 mi
5:55 AM46 °FMostly cloudy.10 mph93%30.02 "Hg5 mi
5:35 AM46 °FMostly cloudy.13 mph93%30.02 "Hg4 mi
5:15 AM46 °FLow clouds.9 mph93%30.02 "Hg6 mi
4:55 AM46 °FMostly cloudy.12 mph93%30.03 "Hg5 mi
4:35 AM46 °FMostly cloudy.10 mph93%30.03 "Hg6 mi
4:15 AM48 °FMostly cloudy.10 mph87%30.03 "Hg10 mi
3:55 AM48 °FOvercast.12 mph87%30.03 "Hg10 mi
3:35 AM48 °FOvercast.10 mph87%30.04 "Hg10 mi
3:15 AM48 °FOvercast.12 mph87%30.04 "Hg10 mi
2:55 AM48 °FMostly cloudy.12 mph87%30.04 "Hg10 mi
2:35 AM48 °FMostly cloudy.13 mph87%30.05 "Hg10 mi
2:15 AM48 °FLow clouds.10 mph87%30.06 "Hg10 mi
1:55 AM48 °FOvercast.14 mph87%30.07 "Hg10 mi
1:35 AM48 °FMostly cloudy.13 mph87%30.07 "Hg10 mi
1:15 AM48 °FMostly cloudy.13 mph87%30.08 "Hg10 mi
12:55 AM50 °FOvercast.12 mph82%30.08 "Hg10 mi
12:35 AM50 °FMostly cloudy.10 mph82%30.09 "Hg10 mi
12:15 AM50 °FMostly cloudy.12 mph82%30.09 "Hg10 mi
11:55 PM
Thu, May 21
50 °FPassing clouds.13 mph82%30.09 "Hg10 mi
11:35 PM50 °FPassing clouds.14 mph82%30.09 "Hg10 mi
11:15 PM52 °FPassing clouds.17 mph77%30.09 "Hg10 mi
10:55 PM52 °FOvercast.16 mph77%30.10 "Hg10 mi
10:35 PM52 °FOvercast.17 mph77%30.10 "Hg10 mi
10:15 PM52 °FOvercast.13 mph77%30.11 "Hg10 mi
9:35 PM52 °FOvercast.13 mph77%30.11 "Hg10 mi
9:15 PM52 °FOvercast.13 mph77%30.11 "Hg10 mi
8:55 PM52 °FPartly sunny.14 mph77%30.11 "Hg10 mi
8:35 PM52 °FScattered clouds.13 mph77%30.11 "Hg10 mi
8:15 PM52 °FPartly sunny.17 mph77%30.10 "Hg10 mi
7:55 PM54 °FOvercast.14 mph72%30.10 "Hg10 mi
7:35 PM54 °FOvercast.9 mph72%30.10 "Hg10 mi
7:15 PM54 °FMostly cloudy.13 mph72%30.10 "Hg10 mi
6:55 PM55 °FOvercast.13 mph67%30.10 "Hg10 mi
6:35 PM55 °FOvercast.13 mph67%30.10 "Hg10 mi
6:15 PM55 °FOvercast.12 mph67%30.10 "Hg10 mi
5:55 PM57 °FMostly cloudy.9 mph67%30.10 "Hg10 mi
5:35 PM57 °FPartly sunny.5 mph67%30.10 "Hg10 mi
5:15 PM57 °FBroken clouds.3 mph63%30.10 "Hg10 mi
4:55 PM57 °FSunny.8 mph63%30.11 "Hg10 mi
4:35 PM55 °FSunny.6 mph67%30.12 "Hg10 mi
4:15 PM55 °FSunny.6 mph67%30.12 "Hg10 mi
Weather by CustomWeather, © 2015

See weather overviewHow to use our weather pages